This demonstration page uses our WeatherBlox Daily Observations layout. Learn more.

Left ArrowRight Arrow

39.12711, -84.51439

Hourly Observations for August 3, 2018

Temp ( °F °C ) Dew Point ( °F °C ) Humidity (%) Winds ( mph kmh ) Pressure ( in mb ) Visibility ( mi km ) Precip ( " mm )
12:53 am 00:53 Clear with Mist and Fog 66 18.9 66 18.9 100 100 N N/A 30.06 1018 3 4 N/A
1:32 am 01:32 Clear with Mist and Fog 65 18.3 65 18.3 100 100 N N/A 30.03 1017 1 2 N/A
1:34 am 01:34 Mostly Cloudy with Fog 65 18.3 65 18.3 100 100 N N/A 30.03 1017 1 1 N/A
1:42 am 01:42 Mostly Cloudy with Fog 65 18.3 65 18.3 100 100 N N/A 30.03 1017 0 0 N/A
1:46 am 01:46 Mostly Cloudy with Mist and Fog 66 18.9 66 18.9 100 100 N N/A 30.03 1017 1 2 N/A
1:48 am 01:48 Mostly Clear with Mist and Fog 66 19 66 19 100 100 N N/A 30.03 1017 2 3 N/A
1:53 am 01:53 Mostly Clear with Mist and Fog 66 18.9 66 18.9 100 100 N N/A 30.05 1018 4 6 N/A
2:22 am 02:22 Partly Cloudy with Mist and Fog 65 18.3 65 18.3 100 100 N N/A 30.03 1017 3 4 N/A
2:29 am 02:29 Mostly Cloudy with Mist and Fog 66 18.9 66 18.9 100 100 N N/A 30.03 1017 3 5 N/A
2:51 am 02:51 Cloudy with Mist and Fog 64 18 64 18 100 100 N N/A 30.03 1017 2 2 N/A
2:53 am 02:53 Cloudy with Fog 66 18.9 66 18.9 100 100 N N/A 30.05 1018 1 1 N/A
3:01 am 03:01 Mostly Cloudy with Fog 66 18.9 66 18.9 100 100 N N/A 30.03 1017 0 0 N/A
3:53 am 03:53 Mostly Cloudy with Fog 66 18.9 66 18.9 100 100 N N/A 30.05 1018 0 0 N/A
4:53 am 04:53 Mostly Cloudy with Fog 66 18.9 66 18.9 100 100 N N/A 30.06 1018 0 0 N/A
5:53 am 05:53 Mostly Cloudy with Fog 66 18.9 66 18.9 100 100 N N/A 30.07 1018 0 0 N/A
6:53 am 06:53 Mostly Cloudy with Fog 66 18.9 66 18.9 100 100 N N/A 30.09 1019 0 0 N/A
7:53 am 07:53 Mostly Cloudy with Fog 66 18.9 66 18.9 100 100 N N/A 30.10 1019 0 0 N/A
8:08 am 08:08 Mostly Cloudy with Mist and Fog 66 18.9 66 18.9 100 100 N N/A 30.09 1019 1 2 N/A
8:46 am 08:46 Mostly Cloudy with Mist and Fog 68 20 68 20 100 100 WSW 3 6 30.09 1019 3 5 N/A
8:53 am 08:53 Mostly Cloudy with Mist and Fog 69 20.6 69 20.6 100 100 SW 3 6 30.11 1020 4 6 N/A
9:13 am 09:13 Partly Cloudy with Mist and Fog 71 21.7 70 21.1 96 96 N N/A 30.09 1019 5 8 N/A
9:53 am 09:53 Sunny 75 23.9 71 21.7 88 88 N N/A 30.10 1019 10 16 N/A
10:53 am 10:53 Mostly Sunny 80 26.7 73 22.8 79 79 VRB 3 6 30.10 1019 10 16 N/A
11:53 am 11:53 Partly Cloudy 83 28.3 69 20.6 63 63 WSW 9 15 30.10 1019 10 16 N/A
12:53 pm 12:53 Partly Cloudy 84 28.9 67 19.4 57 57 WSW 9 15 30.09 1019 10 16 N/A
1:53 pm 13:53 Partly Cloudy 86 30 65 18.3 49 49 WSW 6 9 30.08 1019 10 16 N/A
2:53 pm 14:53 Mostly Cloudy 85 29.4 69 20.6 59 59 SSW 9 15 30.07 1018 10 16 N/A
3:53 pm 15:53 Cloudy 85 29.4 70 21.1 61 61 SSW 12 19 30.05 1018 10 16 N/A
4:53 pm 16:53 Mostly Cloudy 83 28.3 70 21.1 65 65 S 8 13 30.05 1018 10 16 N/A
5:53 pm 17:53 Mostly Cloudy 84 28.9 71 21.7 65 65 SSW 9 15 30.04 1017 10 16 N/A
6:53 pm 18:53 Partly Cloudy 84 28.9 70 21.1 63 63 SSW 8 13 30.03 1017 10 16 N/A
7:53 pm 19:53 Mostly Sunny 82 27.8 69 20.6 65 65 SSW 8 13 30.04 1017 10 16 N/A
8:53 pm 20:53 Clear 76 24.4 70 21.1 82 82 S 6 9 30.05 1018 10 16 N/A
9:53 pm 21:53 Mostly Cloudy 75 23.9 70 21.1 84 84 N N/A 30.07 1018 10 16 N/A
10:53 pm 22:53 Mostly Clear 74 23.3 71 21.7 91 91 N N/A 30.09 1019 9 14 N/A
11:53 pm 23:53 Clear 72 22.2 71 21.7 97 97 N N/A 30.09 1019 7 11 N/A

Powered by AerisWeather